KN6KS Weather Reports


Display with metric or nautical units.
time (UTC)temp
F
wind
direction
speed
MPH
gust
MPH
rain 1hr
in
rain 24hr
in
rain mn
in
humidity
%
barometer
mb
20260508124702 67 223 1.0 1.0 0.00 0.00 0.00 41 1014.4
20260508124159 66 252 0.0 0.0 0.00 0.00 0.00 44 1014.5
20260508123657 68 163 0.0 0.0 0.00 0.00 0.00 42 1014.1
20260508123155 68 234 0.0 0.0 0.00 0.00 0.00 41 1014.0
20260508122650 68 235 0.0 0.0 0.00 0.00 0.00 40 1014.0
20260508122147 68 225 0.0 0.0 0.00 0.00 0.00 42 1014.0
20260508121645 68 189 0.0 0.0 0.00 0.00 0.00 42 1014.0
20260508121143 69 242 0.0 0.0 0.00 0.00 0.00 40 1014.2
20260508120640 70 200 2.0 2.0 0.00 0.00 0.00 38 1014.1
20260508120139 70 251 4.0 5.0 0.00 0.00 0.00 37 1014.0
20260508115636 70 306 4.0 5.0 0.00 0.00 0.00 38 1014.1
20260508115132 71 278 8.0 9.0 0.00 0.00 0.00 37 1013.6
20260508114630 70 240 3.0 6.0 0.00 0.00 0.00 39 1014.0
20260508114125 71 282 5.0 6.0 0.00 0.00 0.00 37 1013.9
20260508113623 72 292 7.0 8.0 0.00 0.00 0.00 37 1014.0
20260508113122 71 269 7.0 8.0 0.00 0.00 0.00 38 1013.9
20260508112617 71 248 5.0 6.0 0.00 0.00 0.00 38 1013.5
20260508112115 72 270 7.0 8.0 0.00 0.00 0.00 37 1014.0
20260508111611 71 264 4.0 5.0 0.00 0.00 0.00 38 1013.8
20260508111108 72 282 5.0 5.0 0.00 0.00 0.00 37 1014.1
20260508110606 72 276 5.0 7.0 0.00 0.00 0.00 37 1014.0
20260508105557 72 255 8.0 9.0 0.00 0.00 0.00 36 1014.1
20260508105054 71 314 8.0 9.0 0.00 0.00 0.00 38 1013.9
20260508104552 72 248 5.0 8.0 0.00 0.00 0.00 35 1013.9
20260508104048 72 259 7.0 9.0 0.00 0.00 0.00 37 1014.0
20260508103545 73 278 9.0 10.0 0.00 0.00 0.00 35 1013.8
20260508103043 73 288 10.0 14.0 0.00 0.00 0.00 35 1014.1
20260508102540 73 278 10.0 11.0 0.00 0.00 0.00 35 1014.0
20260508102038 72 112 7.0 8.0 0.00 0.00 0.00 35 1014.1
20260508101535 72 283 8.0 9.0 0.00 0.00 0.00 35 1014.3
20260508101032 73 244 10.0 11.0 0.00 0.00 0.00 34 1014.1
20260508100530 73 226 8.0 9.0 0.00 0.00 0.00 34 1013.9
20260508100027 73 281 9.0 11.0 0.00 0.00 0.00 33 1014.1
20260508095524 73 273 7.0 7.0 0.00 0.00 0.00 33 1014.1
20260508095021 73 279 10.0 13.0 0.00 0.00 0.00 33 1013.9
20260508094518 73 295 9.0 10.0 0.00 0.00 0.00 33 1014.1
20260508094015 73 276 11.0 13.0 0.00 0.00 0.00 33 1014.0
20260508093512 74 278 11.0 14.0 0.00 0.00 0.00 32 1014.2
20260508093010 72 248 8.0 10.0 0.00 0.00 0.00 34 1014.1
20260508092507 72 273 7.0 9.0 0.00 0.00 0.00 34 1014.2
20260508092006 72 283 6.0 7.0 0.00 0.00 0.00 33 1014.1
20260508091502 72 270 8.0 10.0 0.00 0.00 0.00 33 1014.0
20260508090959 73 242 4.0 5.0 0.00 0.00 0.00 34 1014.1
20260508090458 73 216 11.0 14.0 0.00 0.00 0.00 35 1014.1
20260508085953 73 267 9.0 11.0 0.00 0.00 0.00 33 1014.3
20260508085450 73 298 8.0 9.0 0.00 0.00 0.00 34 1014.1
20260508084947 73 250 10.0 11.0 0.00 0.00 0.00 33 1014.3
20260508084444 74 291 8.0 10.0 0.00 0.00 0.00 33 1014.2
20260508083942 74 275 9.0 10.0 0.00 0.00 0.00 32 1014.5
20260508083438 74 254 11.0 14.0 0.00 0.00 0.00 32 1014.7
20260508082938 74 310 6.0 7.0 0.00 0.00 0.00 33 1014.6
20260508082436 74 261 6.0 8.0 0.00 0.00 0.00 32 1014.7
20260508081934 73 296 6.0 8.0 0.00 0.00 0.00 33 1014.7
20260508081430 74 271 11.0 13.0 0.00 0.00 0.00 33 1014.7
20260508080926 74 320 7.0 8.0 0.00 0.00 0.00 32 1014.9
20260508080425 74 162 10.0 13.0 0.00 0.00 0.00 33 1014.6
20260508075921 74 272 11.0 13.0 0.00 0.00 0.00 33 1014.9
20260508075419 74 301 13.0 16.0 0.00 0.00 0.00 33 1014.9
20260508074916 73 269 11.0 15.0 0.00 0.00 0.00 34 1014.9
20260508074413 74 276 7.0 11.0 0.00 0.00 0.00 32 1014.9
20260508073910 74 274 6.0 8.0 0.00 0.00 0.00 32 1014.7
20260508073408 73 284 12.0 15.0 0.00 0.00 0.00 32 1014.8
20260508072904 73 268 7.0 7.0 0.00 0.00 0.00 32 1014.6
20260508072401 74 257 7.0 9.0 0.00 0.00 0.00 32 1014.7
20260508071858 74 269 9.0 11.0 0.00 0.00 0.00 32 1014.6
20260508071356 74 267 4.0 5.0 0.00 0.00 0.00 32 1014.6
20260508070854 74 260 8.0 10.0 0.00 0.00 0.00 31 1014.7
20260508070351 74 251 6.0 9.0 0.00 0.00 0.00 32 1014.6
20260508065849 74 280 8.0 9.0 0.00 0.00 0.00 32 1014.7
20260508065347 74 273 9.0 10.0 0.00 0.00 0.00 32 1014.9
20260508064845 74 289 7.0 8.0 0.00 0.00 0.00 33 1014.7
20260508064342 74 258 7.0 8.0 0.00 0.00 0.00 33 1014.8
20260508063840 74 346 5.0 6.0 0.00 0.00 0.00 33 1014.7
20260508063337 74 307 9.0 9.0 0.00 0.00 0.00 33 1014.8
20260508062834 74 261 7.0 8.0 0.00 0.00 0.00 33 1014.6
20260508062332 74 277 7.0 9.0 0.00 0.00 0.00 33 1015.0
20260508061828 74 289 8.0 11.0 0.00 0.00 0.00 34 1014.8
20260508061326 74 296 8.0 9.0 0.00 0.00 0.00 34 1014.6
20260508060822 74 267 6.0 8.0 0.00 0.00 0.00 34 1014.6
20260508060320 74 239 7.0 8.0 0.00 0.00 0.00 34 1014.6
20260508055815 74 291 11.0 13.0 0.00 0.00 0.00 35 1014.6
20260508055313 74 255 9.0 13.0 0.00 0.00 0.00 34 1015.0
20260508054809 74 278 6.0 9.0 0.00 0.00 0.00 35 1014.8
20260508054307 74 263 9.0 14.0 0.00 0.00 0.00 35 1015.0
20260508053803 74 274 10.0 13.0 0.00 0.00 0.00 35 1014.9
20260508053301 74 273 10.0 11.0 0.00 0.00 0.00 37 1015.2
20260508052758 73 321 6.0 9.0 0.00 0.00 0.00 37 1014.8
20260508052255 74 296 8.0 11.0 0.00 0.00 0.00 37 1015.2
20260508051751 74 280 9.0 14.0 0.00 0.00 0.00 36 1014.8
20260508051246 74 279 9.0 11.0 0.00 0.00 0.00 37 1015.0
20260508050743 74 276 8.0 9.0 0.00 0.00 0.00 37 1014.9
20260508050240 74 282 7.0 9.0 0.00 0.00 0.00 37 1014.9
20260508045736 74 282 8.0 10.0 0.00 0.00 0.00 37 1014.8
20260508045234 74 303 11.0 13.0 0.00 0.00 0.00 37 1014.9
20260508044731 75 274 11.0 11.0 0.00 0.00 0.00 37 1014.9
20260508044228 74 309 12.0 15.0 0.00 0.00 0.00 38 1015.0
20260508043724 74 277 12.0 14.0 0.00 0.00 0.00 38 1014.9
20260508043222 74 321 15.0 21.0 0.00 0.00 0.00 38 1014.6
20260508042718 75 258 10.0 13.0 0.00 0.00 0.00 38 1014.9
20260508042216 74 262 15.0 18.0 0.00 0.00 0.00 38 1014.7
20260508041712 74 286 11.0 13.0 0.00 0.00 0.00 39 1014.9
20260508041209 75 275 11.0 14.0 0.00 0.00 0.00 39 1014.6
20260508040705 75 265 13.0 16.0 0.00 0.00 0.00 39 1014.5
20260508040203 75 272 12.0 15.0 0.00 0.00 0.00 39 1014.7
20260508035700 75 329 12.0 16.0 0.00 0.00 0.00 38 1014.5
20260508035157 75 263 14.0 17.0 0.00 0.00 0.00 38 1014.6
20260508034653 75 288 11.0 14.0 0.00 0.00 0.00 38 1014.3
20260508034151 75 185 9.0 11.0 0.00 0.00 0.00 38 1014.5
20260508033648 74 275 10.0 14.0 0.00 0.00 0.00 39 1014.4
20260508033146 75 184 10.0 11.0 0.00 0.00 0.00 38 1014.4
20260508032643 75 254 9.0 10.0 0.00 0.00 0.00 39 1014.3
20260508032140 75 281 9.0 11.0 0.00 0.00 0.00 38 1014.3
20260508031637 75 308 10.0 14.0 0.00 0.00 0.00 38 1014.4
20260508031133 75 283 12.0 14.0 0.00 0.00 0.00 38 1014.2
20260508030630 75 281 8.0 10.0 0.00 0.00 0.00 37 1013.9
20260508030127 76 327 9.0 9.0 0.00 0.00 0.00 36 1014.1
20260508025624 76 296 7.0 9.0 0.00 0.00 0.00 36 1014.1
20260508025121 76 304 7.0 8.0 0.00 0.00 0.00 36 1014.1
20260508024617 76 280 11.0 13.0 0.00 0.00 0.00 36 1014.0
20260508024114 77 290 10.0 15.0 0.00 0.00 0.00 35 1013.9
20260508023610 77 271 9.0 10.0 0.00 0.00 0.00 34 1013.8
20260508023108 77 284 16.0 18.0 0.00 0.00 0.00 34 1014.1
20260508022603 78 249 8.0 13.0 0.00 0.00 0.00 34 1013.6
20260508022101 78 289 13.0 15.0 0.00 0.00 0.00 34 1013.4
20260508021556 78 285 8.0 11.0 0.00 0.00 0.00 34 1013.5
20260508021052 79 312 12.0 15.0 0.00 0.00 0.00 33 1013.5
20260508020550 79 291 12.0 16.0 0.00 0.00 0.00 33 1013.6
20260508020048 80 44 13.0 16.0 0.00 0.00 0.00 33 1013.6
20260508015545 80 297 15.0 17.0 0.00 0.00 0.00 32 1013.9
20260508015042 81 320 8.0 11.0 0.00 0.00 0.00 30 1013.3
20260508014538 81 281 11.0 16.0 0.00 0.00 0.00 30 1013.9
20260508014034 81 302 12.0 18.0 0.00 0.00 0.00 30 1013.6
20260508013530 82 152 15.0 18.0 0.00 0.00 0.00 29 1013.5
20260508013028 82 292 12.0 15.0 0.00 0.00 0.00 28 1013.4
20260508012525 82 331 13.0 15.0 0.00 0.00 0.00 29 1013.4
20260508012022 83 301 13.0 16.0 0.00 0.00 0.00 28 1013.5
20260508011521 83 278 16.0 18.0 0.00 0.00 0.00 27 1013.4
20260508011018 84 312 9.0 14.0 0.00 0.00 0.00 27 1013.4
20260508010514 85 259 11.0 15.0 0.00 0.00 0.00 26 1013.3
20260508010012 84 299 15.0 17.0 0.00 0.00 0.00 25 1013.2
20260508005508 85 287 15.0 20.0 0.00 0.00 0.00 25 1013.5
20260508005005 85 291 11.0 15.0 0.00 0.00 0.00 25 1013.2
20260508004501 85 269 11.0 11.0 0.00 0.00 0.00 26 1013.2
20260508003958 85 281 11.0 14.0 0.00 0.00 0.00 24 1013.1
20260508003455 85 258 11.0 11.0 0.00 0.00 0.00 23 1013.2
20260508002952 86 262 13.0 15.0 0.00 0.00 0.00 23 1013.1
20260508002448 85 269 12.0 14.0 0.00 0.00 0.00 24 1013.1
20260508001944 85 258 15.0 20.0 0.00 0.00 0.00 23 1013.0
20260508001441 86 282 8.0 9.0 0.00 0.00 0.00 23 1012.9
20260508000937 86 245 13.0 14.0 0.00 0.00 0.00 23 1013.1
20260508000434 86 261 22.0 24.0 0.00 0.00 0.00 22 1013.1
20260507235930 86 207 16.0 20.0 0.00 0.00 0.00 24 1013.0
20260507235427 86 288 18.0 22.0 0.00 0.00 0.00 23 1013.0
20260507234924 86 251 14.0 17.0 0.00 0.00 0.00 23 1012.8
20260507234421 86 259 12.0 14.0 0.00 0.00 0.00 22 1013.2
20260507233917 86 266 8.0 9.0 0.00 0.00 0.00 23 1013.1
20260507233415 86 253 15.0 18.0 0.00 0.00 0.00 22 1013.0
20260507232913 86 266 12.0 16.0 0.00 0.00 0.00 23 1013.0
20260507232409 86 290 9.0 11.0 0.00 0.00 0.00 23 1013.1
20260507231907 86 234 12.0 15.0 0.00 0.00 0.00 23 1013.0
20260507231403 86 221 19.0 24.0 0.00 0.00 0.00 23 1013.1
20260507230859 87 255 14.0 15.0 0.00 0.00 0.00 23 1012.9
20260507230357 88 274 11.0 13.0 0.00 0.00 0.00 24 1013.0
20260507225857 86 266 14.0 20.0 0.00 0.00 0.00 23 1012.8
20260507225353 87 248 15.0 18.0 0.00 0.00 0.00 23 1013.2
20260507224849 86 233 10.0 16.0 0.00 0.00 0.00 24 1013.0
20260507224346 86 238 17.0 21.0 0.00 0.00 0.00 25 1012.9
20260507223842 87 242 11.0 14.0 0.00 0.00 0.00 24 1012.8
20260507223338 86 270 11.0 14.0 0.00 0.00 0.00 25 1012.9
20260507222835 87 252 15.0 16.0 0.00 0.00 0.00 25 1013.0
20260507222332 87 250 16.0 18.0 0.00 0.00 0.00 26 1013.0
20260507221829 87 278 9.0 10.0 0.00 0.00 0.00 25 1013.2
20260507221325 86 263 12.0 14.0 0.00 0.00 0.00 27 1013.0
20260507220821 87 228 14.0 16.0 0.00 0.00 0.00 28 1013.5
20260507220320 87 241 14.0 21.0 0.00 0.00 0.00 27 1013.3
20260507215816 88 241 9.0 10.0 0.00 0.00 0.00 26 1013.3
20260507215313 87 242 12.0 15.0 0.00 0.00 0.00 26 1013.2
20260507214810 88 273 13.0 14.0 0.00 0.00 0.00 24 1013.3
20260507214308 88 252 19.0 24.0 0.00 0.00 0.00 24 1013.6
20260507213802 88 238 17.0 20.0 0.00 0.00 0.00 24 1013.3
20260507213300 87 277 12.0 16.0 0.00 0.00 0.00 24 1013.4
20260507212756 87 241 13.0 16.0 0.00 0.00 0.00 23 1013.3
20260507212253 88 232 15.0 18.0 0.00 0.00 0.00 22 1013.3
20260507211749 88 205 2.0 3.0 0.00 0.00 0.00 22 1013.4
20260507211245 89 237 15.0 18.0 0.00 0.00 0.00 21 1013.5
20260507210743 89 216 2.0 2.0 0.00 0.00 0.00 17 1013.6
20260507210239 92 269 3.0 5.0 0.00 0.00 0.00 15 1013.8
20260507205736 89 184 5.0 7.0 0.00 0.00 0.00 15 1013.8
20260507205233 89 346 5.0 7.0 0.00 0.00 0.00 15 1013.9
20260507204729 89 256 7.0 10.0 0.00 0.00 0.00 14 1013.9
20260507204228 89 261 3.0 3.0 0.00 0.00 0.00 15 1013.9
20260507203725 89 230 3.0 3.0 0.00 0.00 0.00 15 1014.0
20260507203222 89 11 8.0 10.0 0.00 0.00 0.00 16 1014.1
20260507202718 90 29 7.0 8.0 0.00 0.00 0.00 15 1014.0
20260507202214 90 91 4.0 6.0 0.00 0.00 0.00 16 1014.2
20260507201709 89 204 1.0 1.0 0.00 0.00 0.00 17 1014.3
20260507201206 88 197 1.0 1.0 0.00 0.00 0.00 17 1014.2
20260507200702 89 237 1.0 1.0 0.00 0.00 0.00 17 1014.4
20260507200158 90 57 3.0 6.0 0.00 0.00 0.00 17 1014.4
20260507195655 90 223 1.0 2.0 0.00 0.00 0.00 17 1014.5
20260507195152 88 128 2.0 2.0 0.00 0.00 0.00 17 1014.4
20260507194649 89 193 5.0 8.0 0.00 0.00 0.00 18 1014.5
20260507194145 87 172 1.0 2.0 0.00 0.00 0.00 18 1014.9
20260507193642 86 188 2.0 2.0 0.00 0.00 0.00 19 1014.8
20260507193139 87 183 5.0 6.0 0.00 0.00 0.00 19 1014.9
20260507192635 87 222 1.0 1.0 0.00 0.00 0.00 18 1014.8
20260507192132 85 50 3.0 3.0 0.00 0.00 0.00 20 1015.2
20260507191627 89 126 2.0 2.0 0.00 0.00 0.00 19 1015.2
20260507191124 89 92 2.0 3.0 0.00 0.00 0.00 19 1015.4
20260507190622 85 220 1.0 2.0 0.00 0.00 0.00 20 1015.3
20260507190121 88 48 4.0 6.0 0.00 0.00 0.00 20 1015.3
20260507185619 85 49 1.0 2.0 0.00 0.00 0.00 19 1015.6
20260507185115 86 70 8.0 10.0 0.00 0.00 0.00 22 1015.9
20260507184613 85 291 1.0 2.0 0.00 0.00 0.00 21 1015.6
20260507184111 86 219 1.0 1.0 0.00 0.00 0.00 20 1015.8
20260507183607 86 230 1.0 1.0 0.00 0.00 0.00 20 1015.7
20260507183104 87 140 2.0 2.0 0.00 0.00 0.00 20 1015.9
20260507182600 86 248 1.0 1.0 0.00 0.00 0.00 20 1015.8
20260507182055 84 157 3.0 3.0 0.00 0.00 0.00 23 1015.7
20260507181553 83 242 1.0 1.0 0.00 0.00 0.00 23 1016.1
20260507181049 84 73 2.0 2.0 0.00 0.00 0.00 23 1016.0
20260507180546 84 169 1.0 1.0 0.00 0.00 0.00 23 1015.9
20260507180043 84 56 2.0 2.0 0.00 0.00 0.00 24 1016.0
20260507175538 85 53 1.0 1.0 0.00 0.00 0.00 22 1015.9
20260507175037 83 218 1.0 2.0 0.00 0.00 0.00 24 1016.1
20260507174533 83 159 4.0 5.0 0.00 0.00 0.00 23 1016.1
20260507174031 83 142 2.0 2.0 0.00 0.00 0.00 24 1016.2
20260507173528 82 193 3.0 3.0 0.00 0.00 0.00 25 1016.0
20260507173026 81 219 1.0 1.0 0.00 0.00 0.00 25 1015.9
20260507172521 82 84 3.0 3.0 0.00 0.00 0.00 26 1016.2
20260507172018 80 221 0.0 0.0 0.00 0.00 0.00 27 1016.3
20260507171513 80 86 4.0 6.0 0.00 0.00 0.00 28 1016.3
20260507171011 80 54 2.0 3.0 0.00 0.00 0.00 28 1016.1
20260507170508 80 172 1.0 2.0 0.00 0.00 0.00 26 1016.3
20260507170004 79 109 2.0 2.0 0.00 0.00 0.00 28 1016.3
20260507165500 78 1 2.0 2.0 0.00 0.00 0.00 30 1016.3
20260507164956 78 341 2.0 2.0 0.00 0.00 0.00 29 1016.2
20260507164453 76 235 1.0 1.0 0.00 0.00 0.00 31 1016.3
20260507163950 76 238 2.0 2.0 0.00 0.00 0.00 31 1016.2
20260507163447 76 351 2.0 2.0 0.00 0.00 0.00 33 1016.4
20260507162944 77 14 2.0 2.0 0.00 0.00 0.00 33 1016.6
20260507162439 75 92 4.0 5.0 0.00 0.00 0.00 33 1016.4
20260507161937 74 249 1.0 1.0 0.00 0.00 0.00 35 1016.7
20260507161433 75 97 5.0 6.0 0.00 0.00 0.00 34 1016.7
20260507160930 74 88 3.0 5.0 0.00 0.00 0.00 34 1016.7
20260507160426 75 160 1.0 2.0 0.00 0.00 0.00 34 1016.8
20260507155922 73 112 1.0 2.0 0.00 0.00 0.00 36 1016.8
20260507155418 73 148 2.0 2.0 0.00 0.00 0.00 36 1016.6
20260507154915 72 120 3.0 3.0 0.00 0.00 0.00 36 1016.7
20260507154412 72 199 1.0 1.0 0.00 0.00 0.00 38 1016.7
20260507153909 70 148 1.0 1.0 0.00 0.00 0.00 40 1016.9
20260507153405 69 114 3.0 3.0 0.00 0.00 0.00 40 1016.9
20260507152902 68 197 1.0 1.0 0.00 0.00 0.00 42 1017.0
20260507152358 69 198 2.0 2.0 0.00 0.00 0.00 42 1016.7
20260507151854 67 201 1.0 1.0 0.00 0.00 0.00 44 1016.7
20260507151351 67 224 0.0 0.0 0.00 0.00 0.00 45 1016.9
20260507150848 68 215 0.0 0.0 0.00 0.00 0.00 44 1017.0
20260507150345 65 230 0.0 0.0 0.00 0.00 0.00 47 1016.9
20260507145841 65 57 1.0 1.0 0.00 0.00 0.00 46 1017.0
20260507145338 65 228 0.0 0.0 0.00 0.00 0.00 46 1017.0
20260507144834 63 213 0.0 0.0 0.00 0.00 0.00 48 1016.9
20260507144332 62 61 1.0 2.0 0.00 0.00 0.00 50 1016.8
20260507143828 62 38 2.0 3.0 0.00 0.00 0.00 51 1016.9
20260507143325 63 148 1.0 1.0 0.00 0.00 0.00 49 1016.4
20260507142821 64 239 0.0 0.0 0.00 0.00 0.00 47 1016.7
20260507142318 63 238 0.0 0.0 0.00 0.00 0.00 49 1016.8
20260507141815 62 209 0.0 0.0 0.00 0.00 0.00 52 1016.4
20260507141311 61 45 1.0 2.0 0.00 0.00 0.00 54 1016.4
20260507140808 61 169 0.0 1.0 0.00 0.00 0.00 55 1016.6
20260507140305 60 169 1.0 1.0 0.00 0.00 0.00 55 1016.6
20260507135802 59 203 1.0 1.0 0.00 0.00 0.00 56 1016.3
20260507135259 59 214 1.0 1.0 0.00 0.00 0.00 56 1016.1
20260507134756 59 226 0.0 0.0 0.00 0.00 0.00 54 1016.3
20260507134252 58 226 0.0 0.0 0.00 0.00 0.00 57 1016.3
20260507133748 57 234 0.0 0.0 0.00 0.00 0.00 57 1016.3
20260507133245 57 222 0.0 1.0 0.00 0.00 0.00 57 1016.1
20260507132743 56 244 0.0 0.0 0.00 0.00 0.00 57 1016.2
20260507132239 56 257 1.0 1.0 0.00 0.00 0.00 58 1016.3
20260507131736 55 257 1.0 1.0 0.00 0.00 0.00 58 1016.1
20260507131233 55 232 1.0 1.0 0.00 0.00 0.00 61 1016.1
20260507130730 55 267 1.0 1.0 0.00 0.00 0.00 63 1016.0
20260507130228 55 237 0.0 0.0 0.00 0.00 0.00 63 1015.9
20260507125726 55 227 1.0 1.0 0.00 0.00 0.00 62 1016.0
20260507125223 55 245 0.0 0.0 0.00 0.00 0.00 60 1015.9